EW9082 Weather Reports


time (UTC)temp
C
wind
direction
speed
KPH
gust
KPH
rain 1hr
cm
rain 24hr
cm
rain mn
cm
humidity
%
barometer
mb
20260507140018 12 207 0.0 3.2 0.00 0.81 0.41 90 1009.7
20260507134528 11 37 0.0 3.2 0.00 0.81 0.41 92 1009.7
20260507133059 10 315 0.0 3.2 0.00 0.81 0.41 94 1009.6
20260507131615 10 311 0.0 3.2 0.00 0.81 0.41 96 1009.9
20260507130039 10 225 0.0 3.2 0.03 0.81 0.41 97 1009.4
20260507124537 10 329 0.0 1.6 0.03 0.81 0.41 97 1009.7
20260507123028 10 208 0.0 0.0 0.03 0.81 0.41 97 1009.7
20260507121525 10 303 0.0 0.0 0.05 0.81 0.41 97 1009.8
20260507120025 10 303 0.0 0.0 0.03 0.79 0.38 97 1010.2
20260507114530 9 303 0.0 0.0 0.05 0.79 0.38 97 1009.5
20260507113024 9 303 0.0 0.0 0.05 0.79 0.38 97 1009.5
20260507111524 8 303 0.0 0.0 0.03 0.76 0.36 97 1009.5
20260507110023 8 303 0.0 3.2 0.05 0.76 0.36 97 1009.5
20260507104524 8 303 0.0 1.6 0.03 0.71 0.33 97 1009.2
20260507103023 8 316 1.6 4.8 0.05 0.71 0.33 97 1008.9
20260507101601 9 311 1.6 4.8 0.05 0.71 0.33 97 1008.9
20260507100058 9 311 0.0 0.0 0.05 0.71 0.30 97 1009.1
20260507094540 9 311 0.0 0.0 0.05 0.71 0.30 97 1009.0
20260507093039 9 311 0.0 0.0 0.05 0.69 0.28 97 1008.6
20260507091520 9 311 0.0 3.2 0.05 0.69 0.28 96 1008.4
20260507090028 10 311 0.0 3.2 0.08 0.66 0.25 96 1008.4
20260507084504 10 311 0.0 1.6 0.23 0.66 0.25 96 1008.5
20260507083004 10 312 0.0 4.8 0.23 0.64 0.23 96 1008.4
20260507081500 10 308 1.6 6.4 0.20 0.61 0.20 96 1008.6
20260507080057 11 314 4.8 9.7 0.18 0.58 0.18 96 1008.3
20260507074553 12 316 3.2 6.4 0.03 0.43 0.03 97 1008.3
20260507073051 12 160 0.0 1.6 0.00 0.41 0.00 97 1008.0
20260507071554 12 95 0.0 0.0 0.00 0.41 0.00 97 1007.1
20260507070100 12 95 0.0 0.0 0.00 0.41 0.00 97 1006.9
20260507064535 12 95 0.0 0.0 0.00 0.41 0.00 97 1007.2
20260507063034 12 95 0.0 0.0 0.00 0.41 0.00 97 1007.5
20260507061512 12 95 0.0 0.0 0.00 0.41 0.00 97 1007.3
20260507060009 12 95 0.0 0.0 0.00 0.41 0.00 97 1007.5
20260507054555 12 95 0.0 1.6 0.00 0.41 0.41 96 1007.7
20260507053052 12 150 0.0 1.6 0.00 0.41 0.41 96 1008.0
20260507051538 12 105 0.0 3.2 0.00 0.41 0.41 97 1008.1
20260507050034 12 185 0.0 4.8 0.00 0.41 0.41 97 1008.3
20260507044511 12 179 0.0 3.2 0.00 0.41 0.41 97 1008.2
20260507043010 12 156 0.0 4.8 0.00 0.41 0.41 96 1008.4
20260507041552 12 127 0.0 1.6 0.00 0.41 0.41 97 1008.2
20260507040051 12 205 0.0 6.4 0.00 0.41 0.41 96 1008.4
20260507034550 12 243 1.6 6.4 0.00 0.41 0.41 96 1008.2
20260507033036 12 159 0.0 4.8 0.00 0.41 0.41 96 1008.5
20260507031513 12 215 0.0 4.8 0.00 0.41 0.41 96 1008.8
20260507030018 12 202 0.0 9.7 0.00 0.41 0.41 96 1008.5
20260507024600 12 218 0.0 9.7 0.00 0.41 0.41 96 1008.5
20260507023055 12 72 0.0 14.5 0.00 0.41 0.41 96 1008.5
20260507021547 12 159 1.6 9.7 0.00 0.41 0.41 96 1008.6
20260507020043 12 103 1.6 14.5 0.00 0.41 0.41 96 1008.5
20260507014543 12 153 3.2 14.5 0.00 0.41 0.41 96 1008.7
20260507013038 12 196 6.4 14.5 0.00 0.41 0.41 96 1008.7
20260507011542 12 205 1.6 9.7 0.00 0.41 0.41 96 1008.9
20260507010042 12 117 3.2 12.9 0.00 0.41 0.41 96 1009.1
20260507004535 12 160 3.2 12.9 0.00 0.41 0.41 96 1009.0
20260507003033 12 210 3.2 11.3 0.00 0.41 0.41 96 1008.9
20260507001516 12 188 4.8 12.9 0.00 0.41 0.41 96 1008.9
20260507000013 12 197 3.2 12.9 0.03 0.41 0.41 96 1009.0
20260506234607 12 206 3.2 16.1 0.05 0.41 0.41 96 1008.9
20260506233102 12 252 6.4 22.5 0.13 0.41 0.41 96 1009.0
20260506231538 12 149 6.4 20.9 0.23 0.41 0.41 96 1009.0
20260506230042 12 154 1.6 11.3 0.30 0.38 0.38 96 1008.9
20260506224517 12 143 3.2 11.3 0.30 0.36 0.36 96 1008.9
20260506223014 12 155 4.8 12.9 0.23 0.28 0.28 95 1009.0
20260506221554 12 189 4.8 12.9 0.15 0.18 0.18 95 1009.0
20260506220053 12 80 1.6 12.9 0.05 0.08 0.08 95 1009.5
20260506214532 12 203 1.6 14.5 0.03 0.05 0.05 95 1009.4
20260506213032 12 168 3.2 9.7 0.03 0.05 0.05 94 1009.6
20260506211515 12 174 3.2 11.3 0.00 0.03 0.03 93 1009.7
20260506210015 12 169 3.2 11.3 0.00 0.03 0.03 93 1009.8
20260506204511 13 78 3.2 17.7 0.03 0.03 0.03 92 1009.9
20260506203013 13 121 3.2 14.5 0.03 0.03 0.03 91 1010.1
20260506201512 13 156 6.4 16.1 0.03 0.03 0.03 91 1010.1
20260506200011 13 213 6.4 27.4 0.03 0.03 0.03 91 1010.2
20260506194507 14 155 3.2 24.1 0.00 0.00 0.00 89 1010.3
20260506193006 15 110 6.4 17.7 0.00 0.00 0.00 86 1010.4
20260506191548 15 151 9.7 19.3 0.00 0.00 0.00 83 1010.4
20260506190045 15 150 6.4 25.7 0.00 0.00 0.00 82 1010.4
20260506184528 16 174 6.4 19.3 0.00 0.00 0.00 82 1010.5
20260506183029 16 59 9.7 27.4 0.00 0.00 0.00 81 1010.7
20260506181509 16 128 4.8 20.9 0.00 0.00 0.00 81 1010.9
20260506180008 16 168 6.4 17.7 0.00 0.00 0.00 80 1011.0
20260506174601 16 125 6.4 22.5 0.00 0.00 0.00 79 1011.3
20260506173125 17 166 4.8 22.5 0.00 0.00 0.00 78 1011.5
20260506171553 17 212 8.0 22.5 0.00 0.00 0.00 77 1011.6
20260506170051 17 85 9.7 27.4 0.00 0.00 0.00 77 1011.6
20260506164550 17 198 8.0 25.7 0.00 0.00 0.00 78 1011.8
20260506163053 17 197 8.0 17.7 0.00 0.00 0.00 78 1012.1
20260506161548 17 230 6.4 20.9 0.00 0.00 0.00 77 1012.1
20260506160047 18 167 1.6 24.1 0.00 0.00 0.00 76 1012.3
20260506154530 17 86 8.0 25.7 0.00 0.00 0.00 76 1012.5
20260506153040 17 206 9.7 25.7 0.00 0.00 0.00 77 1012.4
20260506151526 17 153 6.4 29.0 0.00 0.00 0.00 77 1012.5
20260506150025 17 221 9.7 24.1 0.00 0.00 0.00 78 1012.8
20260506144537 17 217 6.4 16.1 0.00 0.00 0.00 78 1012.5
20260506143024 17 209 6.4 19.3 0.00 0.00 0.00 79 1012.6
20260506141526 17 201 4.8 22.5 0.00 0.00 0.00 79 1012.7